| time (UTC) | temp C | wind direction | speed KPH | gust KPH | rain 1hr cm | rain 24hr cm | rain mn cm | humidity % | barometer mb |
| 20260906135015 | 22 | 68 | 1.6 | 4.8 | 0.00 | 0.00 | 0.00 | 63 | 1015.2 |
| 20260906134515 | 22 | 68 | 3.2 | 12.9 | 0.00 | 0.00 | 0.00 | 63 | 1015.2 |
| 20260906134036 | 22 | 90 | 1.6 | 8.0 | 0.00 | 0.00 | 0.00 | 64 | 1015.1 |
| 20260906133515 | 22 | 23 | 1.6 | 6.4 | 0.00 | 0.00 | 0.00 | 64 | 1015.1 |
| 20260906133037 | 22 | 45 | 3.2 | 8.0 | 0.00 | 0.00 | 0.00 | 64 | 1015.2 |
| 20260906132535 | 22 | 68 | 3.2 | 6.4 | 0.00 | 0.00 | 0.00 | 63 | 1015.2 |
| 20260906132015 | 23 | 68 | 4.8 | 11.3 | 0.00 | 0.00 | 0.00 | 63 | 1015.1 |
| 20260906131515 | 23 | 338 | 3.2 | 6.4 | 0.00 | 0.00 | 0.00 | 63 | 1015.1 |
| 20260906131017 | 23 | 113 | 3.2 | 11.3 | 0.00 | 0.00 | 0.00 | 64 | 1015.1 |
| 20260906130536 | 22 | 113 | 4.8 | 12.9 | 0.00 | 0.00 | 0.00 | 64 | 1015.0 |
| 20260906130015 | 22 | 135 | 3.2 | 12.9 | 0.00 | 0.00 | 0.00 | 65 | 1015.0 |
| 20260906125515 | 22 | 113 | 3.2 | 11.3 | 0.00 | 0.00 | 0.00 | 65 | 1014.9 |
| 20260906125015 | 22 | 90 | 4.8 | 12.9 | 0.00 | 0.00 | 0.00 | 65 | 1014.9 |
| 20260906124515 | 22 | 68 | 3.2 | 8.0 | 0.00 | 0.00 | 0.00 | 66 | 1014.9 |
| 20260906124035 | 22 | 90 | 3.2 | 8.0 | 0.00 | 0.00 | 0.00 | 66 | 1014.8 |
| 20260906123517 | 22 | 90 | 3.2 | 9.7 | 0.00 | 0.00 | 0.00 | 66 | 1014.8 |
| 20260906123017 | 22 | 90 | 1.6 | 6.4 | 0.00 | 0.00 | 0.00 | 67 | 1014.7 |
| 20260906122538 | 22 | 135 | 3.2 | 6.4 | 0.00 | 0.00 | 0.00 | 68 | 1014.8 |
| 20260906122017 | 21 | 68 | 1.6 | 8.0 | 0.00 | 0.00 | 0.00 | 68 | 1014.7 |
| 20260906121517 | 21 | 68 | 1.6 | 6.4 | 0.00 | 0.00 | 0.00 | 69 | 1014.7 |
| 20260906121017 | 21 | 135 | 3.2 | 11.3 | 0.00 | 0.00 | 0.00 | 69 | 1014.8 |
| 20260906120517 | 21 | 113 | 4.8 | 12.9 | 0.00 | 0.00 | 0.00 | 70 | 1014.7 |
| 20260906120017 | 21 | 113 | 3.2 | 4.8 | 0.00 | 0.00 | 0.00 | 71 | 1014.7 |
| 20260906115538 | 21 | 90 | 3.2 | 9.7 | 0.00 | 0.00 | 0.00 | 71 | 1014.6 |
| 20260906115017 | 20 | 113 | 3.2 | 9.7 | 0.00 | 0.00 | 0.00 | 72 | 1014.5 |
| 20260906114517 | 20 | 68 | 1.6 | 8.0 | 0.00 | 0.00 | 0.00 | 73 | 1014.5 |
| 20260906114037 | 20 | 135 | 1.6 | 6.4 | 0.00 | 0.00 | 0.00 | 74 | 1014.4 |
| 20260906113537 | 20 | 90 | 1.6 | 6.4 | 0.00 | 0.00 | 0.00 | 76 | 1014.4 |
| 20260906113018 | 20 | 68 | 1.6 | 6.4 | 0.00 | 0.00 | 0.00 | 77 | 1014.3 |
| 20260906112538 | 20 | 135 | 1.6 | 6.4 | 0.00 | 0.00 | 0.00 | 78 | 1014.2 |
| 20260906112018 | 19 | 68 | 1.6 | 9.7 | 0.00 | 0.00 | 0.00 | 79 | 1014.1 |
| 20260906111517 | 19 | 68 | 3.2 | 9.7 | 0.00 | 0.00 | 0.00 | 80 | 1014.0 |
| 20260906111017 | 19 | 113 | 4.8 | 11.3 | 0.00 | 0.00 | 0.00 | 81 | 1014.0 |
| 20260906110517 | 19 | 68 | 1.6 | 6.4 | 0.00 | 0.00 | 0.00 | 81 | 1013.9 |
| 20260906110018 | 19 | 23 | 1.6 | 4.8 | 0.00 | 0.00 | 0.00 | 82 | 1013.9 |
| 20260906105519 | 19 | 45 | 4.8 | 12.9 | 0.00 | 0.00 | 0.00 | 83 | 1013.9 |
| 20260906105039 | 19 | 68 | 3.2 | 12.9 | 0.00 | 0.00 | 0.00 | 84 | 1013.9 |
| 20260906104537 | 19 | 68 | 3.2 | 11.3 | 0.00 | 0.00 | 0.00 | 84 | 1013.7 |
| 20260906104017 | 19 | 90 | 3.2 | 8.0 | 0.00 | 0.00 | 0.00 | 85 | 1013.8 |
| 20260906103537 | 19 | 68 | 3.2 | 9.7 | 0.00 | 0.00 | 0.00 | 85 | 1013.7 |
| 20260906103017 | 20 | 45 | 3.2 | 6.4 | 0.00 | 0.00 | 0.00 | 86 | 1013.7 |
| 20260906102518 | 20 | 113 | 1.6 | 6.4 | 0.00 | 0.00 | 0.00 | 86 | 1013.5 |
| 20260906102037 | 20 | 68 | 3.2 | 8.0 | 0.00 | 0.00 | 0.00 | 86 | 1013.5 |
| 20260906101517 | 19 | 90 | 1.6 | 6.4 | 0.00 | 0.00 | 0.00 | 86 | 1013.3 |
| 20260906101018 | 20 | 23 | 3.2 | 8.0 | 0.00 | 0.00 | 0.00 | 86 | 1013.3 |
| 20260906100517 | 20 | 68 | 3.2 | 8.0 | 0.00 | 0.00 | 0.00 | 86 | 1013.3 |
| 20260906100018 | 20 | 68 | 3.2 | 8.0 | 0.00 | 0.00 | 0.00 | 86 | 1013.2 |
| 20260906095517 | 20 | 68 | 1.6 | 3.2 | 0.00 | 0.00 | 0.00 | 86 | 1013.1 |
| 20260906095017 | 20 | 68 | 1.6 | 3.2 | 0.00 | 0.00 | 0.00 | 86 | 1013.1 |
| 20260906094517 | 20 | 0.0 | 3.2 | 0.00 | 0.00 | 0.00 | 86 | 1013.1 | |
| 20260906094017 | 20 | 90 | 1.6 | 6.4 | 0.00 | 0.00 | 0.00 | 86 | 1013.0 |
| 20260906093538 | 20 | 0.0 | 3.2 | 0.00 | 0.00 | 0.00 | 86 | 1013.0 | |
| 20260906093017 | 20 | 0.0 | 3.2 | 0.00 | 0.00 | 0.00 | 86 | 1013.0 | |
| 20260906092517 | 20 | 90 | 1.6 | 4.8 | 0.00 | 0.00 | 0.00 | 85 | 1012.8 |
| 20260906092037 | 20 | 90 | 1.6 | 4.8 | 0.00 | 0.00 | 0.00 | 85 | 1012.8 |
| 20260906091537 | 20 | 90 | 1.6 | 8.0 | 0.00 | 0.00 | 0.00 | 85 | 1012.7 |
| 20260906091017 | 20 | 68 | 1.6 | 4.8 | 0.00 | 0.00 | 0.00 | 85 | 1012.5 |
| 20260906090517 | 20 | 23 | 1.6 | 4.8 | 0.00 | 0.00 | 0.00 | 85 | 1012.5 |
| 20260906090017 | 20 | 0.0 | 3.2 | 0.00 | 0.00 | 0.00 | 84 | 1012.5 | |
| 20260906085517 | 20 | 113 | 1.6 | 4.8 | 0.00 | 0.00 | 0.00 | 84 | 1012.5 |
| 20260906085017 | 20 | 113 | 1.6 | 4.8 | 0.00 | 0.00 | 0.00 | 84 | 1012.5 |
| 20260906084517 | 20 | 90 | 1.6 | 6.4 | 0.00 | 0.00 | 0.00 | 84 | 1012.5 |
| 20260906084037 | 20 | 68 | 1.6 | 4.8 | 0.00 | 0.00 | 0.00 | 83 | 1012.6 |
| 20260906083538 | 20 | 68 | 1.6 | 4.8 | 0.00 | 0.00 | 0.00 | 83 | 1012.5 |
| 20260906083018 | 20 | 135 | 3.2 | 9.7 | 0.00 | 0.00 | 0.00 | 82 | 1012.5 |
| 20260906082517 | 20 | 68 | 3.2 | 9.7 | 0.00 | 0.00 | 0.00 | 81 | 1012.3 |
| 20260906082017 | 20 | 68 | 3.2 | 8.0 | 0.00 | 0.00 | 0.00 | 81 | 1012.3 |
| 20260906081517 | 20 | 135 | 3.2 | 6.4 | 0.00 | 0.00 | 0.00 | 80 | 1012.3 |
| 20260906081017 | 20 | 68 | 3.2 | 8.0 | 0.00 | 0.00 | 0.00 | 80 | 1012.2 |
| 20260906080518 | 20 | 68 | 3.2 | 11.3 | 0.00 | 0.00 | 0.00 | 79 | 1012.3 |
| 20260906080017 | 20 | 68 | 3.2 | 8.0 | 0.00 | 0.00 | 0.00 | 80 | 1012.2 |
| 20260906075517 | 21 | 68 | 3.2 | 11.3 | 0.00 | 0.00 | 0.00 | 80 | 1012.2 |
| 20260906075017 | 21 | 90 | 4.8 | 12.9 | 0.00 | 0.00 | 0.00 | 80 | 1012.2 |
| 20260906074558 | 21 | 113 | 3.2 | 11.3 | 0.00 | 0.00 | 0.00 | 81 | 1012.1 |
| 20260906074017 | 21 | 45 | 1.6 | 8.0 | 0.00 | 0.00 | 0.00 | 81 | 1012.2 |
| 20260906073518 | 21 | 90 | 1.6 | 6.4 | 0.00 | 0.00 | 0.00 | 81 | 1012.1 |
| 20260906073017 | 21 | 90 | 1.6 | 8.0 | 0.00 | 0.00 | 0.00 | 80 | 1012.1 |
| 20260906072538 | 21 | 68 | 1.6 | 4.8 | 0.00 | 0.00 | 0.00 | 80 | 1012.2 |
| 20260906072017 | 21 | 68 | 3.2 | 8.0 | 0.00 | 0.00 | 0.00 | 79 | 1012.1 |
| 20260906071518 | 21 | 90 | 1.6 | 4.8 | 0.00 | 0.00 | 0.00 | 78 | 1012.1 |
| 20260906071017 | 21 | 90 | 1.6 | 4.8 | 0.00 | 0.00 | 0.00 | 77 | 1012.0 |
| 20260906070517 | 21 | 90 | 1.6 | 6.4 | 0.00 | 0.00 | 0.00 | 76 | 1012.0 |
| 20260906070017 | 21 | 113 | 1.6 | 8.0 | 0.00 | 0.00 | 0.00 | 75 | 1012.0 |
| 20260906065517 | 21 | 23 | 3.2 | 6.4 | 0.00 | 0.00 | 0.00 | 75 | 1011.9 |
| 20260906065017 | 21 | 23 | 3.2 | 6.4 | 0.00 | 0.00 | 0.00 | 74 | 1011.9 |
| 20260906064518 | 21 | 68 | 1.6 | 4.8 | 0.00 | 0.00 | 0.00 | 73 | 1012.0 |
| 20260906064017 | 21 | 23 | 1.6 | 4.8 | 0.00 | 0.00 | 0.00 | 72 | 1012.0 |
| 20260906063517 | 21 | 68 | 1.6 | 11.3 | 0.00 | 0.00 | 0.00 | 72 | 1012.0 |
| 20260906063017 | 22 | 68 | 1.6 | 6.4 | 0.00 | 0.00 | 0.00 | 72 | 1012.0 |
| 20260906062517 | 22 | 113 | 1.6 | 6.4 | 0.00 | 0.00 | 0.00 | 72 | 1012.1 |
| 20260906062017 | 22 | 45 | 3.2 | 6.4 | 0.00 | 0.00 | 0.00 | 71 | 1012.1 |
| 20260906061516 | 22 | 68 | 1.6 | 6.4 | 0.00 | 0.00 | 0.00 | 71 | 1012.2 |
| 20260906061017 | 22 | 68 | 3.2 | 4.8 | 0.00 | 0.00 | 0.00 | 71 | 1012.2 |
| 20260906060517 | 22 | 90 | 1.6 | 4.8 | 0.00 | 0.00 | 0.00 | 71 | 1012.2 |
| 20260906060057 | 22 | 68 | 1.6 | 6.4 | 0.00 | 0.00 | 0.00 | 72 | 1012.4 |
| 20260906055517 | 22 | 68 | 1.6 | 4.8 | 0.00 | 0.00 | 0.00 | 72 | 1012.4 |
| 20260906055017 | 22 | 0.0 | 1.6 | 0.00 | 0.00 | 0.00 | 72 | 1012.5 | |
| 20260906054517 | 22 | 0.0 | 3.2 | 0.00 | 0.00 | 0.00 | 72 | 1012.4 | |
| 20260906054017 | 22 | 0.0 | 4.8 | 0.00 | 0.00 | 0.00 | 72 | 1012.4 | |
| 20260906053517 | 22 | 0.0 | 3.2 | 0.00 | 0.00 | 0.00 | 72 | 1012.5 | |
| 20260906053017 | 22 | 68 | 1.6 | 3.2 | 0.00 | 0.00 | 0.00 | 72 | 1012.4 |
| 20260906052517 | 22 | 68 | 1.6 | 6.4 | 0.00 | 0.00 | 0.00 | 71 | 1012.4 |
| 20260906052016 | 22 | 68 | 1.6 | 3.2 | 0.00 | 0.00 | 0.00 | 71 | 1012.5 |
| 20260906051537 | 22 | 90 | 1.6 | 8.0 | 0.00 | 0.00 | 0.00 | 71 | 1012.5 |
| 20260906051017 | 22 | 45 | 1.6 | 6.4 | 0.00 | 0.00 | 0.00 | 71 | 1012.5 |
| 20260906050538 | 22 | 68 | 1.6 | 6.4 | 0.00 | 0.00 | 0.00 | 71 | 1012.4 |
| 20260906050017 | 22 | 45 | 1.6 | 4.8 | 0.00 | 0.00 | 0.00 | 71 | 1012.5 |
| 20260906045517 | 22 | 68 | 1.6 | 6.4 | 0.00 | 0.00 | 0.00 | 71 | 1012.6 |
| 20260906045016 | 22 | 45 | 3.2 | 8.0 | 0.00 | 0.00 | 0.00 | 71 | 1012.5 |
| 20260906044517 | 22 | 23 | 1.6 | 4.8 | 0.00 | 0.00 | 0.00 | 71 | 1012.6 |
| 20260906044017 | 22 | 23 | 1.6 | 8.0 | 0.00 | 0.00 | 0.00 | 71 | 1012.6 |
| 20260906043517 | 22 | 45 | 3.2 | 8.0 | 0.00 | 0.00 | 0.00 | 71 | 1012.5 |
| 20260906043016 | 22 | 45 | 3.2 | 8.0 | 0.00 | 0.00 | 0.00 | 71 | 1012.4 |
| 20260906042539 | 22 | 45 | 3.2 | 4.8 | 0.00 | 0.00 | 0.00 | 70 | 1012.4 |
| 20260906042018 | 22 | 90 | 3.2 | 6.4 | 0.00 | 0.00 | 0.00 | 70 | 1012.4 |
| 20260906041517 | 22 | 45 | 3.2 | 8.0 | 0.00 | 0.00 | 0.00 | 70 | 1012.4 |
| 20260906041017 | 22 | 45 | 4.8 | 11.3 | 0.00 | 0.00 | 0.00 | 69 | 1012.4 |
| 20260906040516 | 22 | 68 | 4.8 | 14.5 | 0.00 | 0.00 | 0.00 | 68 | 1012.5 |
| 20260906040018 | 22 | 23 | 3.2 | 9.7 | 0.00 | 0.00 | 0.00 | 68 | 1012.5 |
| 20260906035517 | 22 | 23 | 3.2 | 8.0 | 0.00 | 0.00 | 0.00 | 67 | 1012.5 |
| 20260906035018 | 22 | 45 | 1.6 | 6.4 | 0.00 | 0.00 | 0.00 | 67 | 1012.5 |
| 20260906034517 | 22 | 68 | 4.8 | 11.3 | 0.00 | 0.00 | 0.00 | 67 | 1012.5 |
| 20260906034037 | 22 | 45 | 3.2 | 9.7 | 0.00 | 0.00 | 0.00 | 66 | 1012.4 |
| 20260906033517 | 22 | 45 | 3.2 | 8.0 | 0.00 | 0.00 | 0.00 | 66 | 1012.4 |
| 20260906033017 | 23 | 45 | 4.8 | 11.3 | 0.00 | 0.00 | 0.00 | 65 | 1012.3 |
| 20260906032539 | 23 | 23 | 3.2 | 12.9 | 0.00 | 0.00 | 0.00 | 65 | 1012.3 |
| 20260906032017 | 23 | 23 | 3.2 | 6.4 | 0.00 | 0.00 | 0.00 | 65 | 1012.2 |
| 20260906031518 | 23 | 68 | 1.6 | 4.8 | 0.00 | 0.00 | 0.00 | 64 | 1012.2 |
| 20260906031018 | 23 | 90 | 3.2 | 8.0 | 0.00 | 0.00 | 0.00 | 64 | 1012.1 |
| 20260906030518 | 23 | 90 | 1.6 | 6.4 | 0.00 | 0.00 | 0.00 | 64 | 1012.1 |
| 20260906030037 | 23 | 45 | 3.2 | 9.7 | 0.00 | 0.00 | 0.00 | 63 | 1012.1 |
| 20260906025517 | 23 | 68 | 6.4 | 17.7 | 0.00 | 0.00 | 0.00 | 63 | 1012.1 |
| 20260906025017 | 23 | 23 | 3.2 | 12.9 | 0.00 | 0.00 | 0.00 | 63 | 1012.1 |
| 20260906024517 | 23 | 45 | 3.2 | 9.7 | 0.00 | 0.00 | 0.00 | 63 | 1012.1 |
| 20260906024017 | 23 | 0 | 3.2 | 8.0 | 0.00 | 0.00 | 0.00 | 64 | 1012.0 |
| 20260906023537 | 23 | 45 | 3.2 | 12.9 | 0.00 | 0.00 | 0.00 | 64 | 1012.0 |
| 20260906023017 | 23 | 338 | 3.2 | 8.0 | 0.00 | 0.00 | 0.00 | 64 | 1012.0 |
| 20260906022517 | 23 | 45 | 1.6 | 3.2 | 0.00 | 0.00 | 0.00 | 62 | 1012.0 |
| 20260906022017 | 23 | 45 | 1.6 | 4.8 | 0.00 | 0.00 | 0.00 | 62 | 1011.9 |
| 20260906021518 | 23 | 45 | 1.6 | 6.4 | 0.00 | 0.00 | 0.00 | 61 | 1012.0 |
| 20260906021017 | 24 | 90 | 3.2 | 6.4 | 0.00 | 0.00 | 0.00 | 61 | 1012.0 |
| 20260906020517 | 24 | 45 | 3.2 | 6.4 | 0.00 | 0.00 | 0.00 | 61 | 1012.0 |
| 20260906020017 | 24 | 23 | 3.2 | 8.0 | 0.00 | 0.00 | 0.00 | 61 | 1011.9 |
| 20260906015517 | 24 | 0 | 3.2 | 6.4 | 0.00 | 0.00 | 0.00 | 60 | 1011.8 |
| 20260906015037 | 24 | 45 | 3.2 | 8.0 | 0.00 | 0.00 | 0.00 | 60 | 1011.7 |
| 20260906014517 | 24 | 45 | 4.8 | 14.5 | 0.00 | 0.00 | 0.00 | 59 | 1011.7 |
| 20260906014017 | 24 | 23 | 3.2 | 9.7 | 0.00 | 0.00 | 0.00 | 59 | 1011.7 |
| 20260906013519 | 24 | 45 | 3.2 | 8.0 | 0.00 | 0.00 | 0.00 | 59 | 1011.7 |
| 20260906013037 | 24 | 338 | 3.2 | 8.0 | 0.00 | 0.00 | 0.00 | 57 | 1011.6 |
| 20260906012517 | 24 | 45 | 3.2 | 14.5 | 0.00 | 0.00 | 0.00 | 56 | 1011.6 |
| 20260906012017 | 24 | 45 | 3.2 | 8.0 | 0.00 | 0.00 | 0.00 | 57 | 1011.6 |
| 20260906011518 | 24 | 23 | 3.2 | 12.9 | 0.00 | 0.00 | 0.00 | 57 | 1011.6 |
| 20260906011018 | 24 | 338 | 4.8 | 17.7 | 0.00 | 0.00 | 0.00 | 58 | 1011.5 |
| 20260906010517 | 25 | 45 | 4.8 | 12.9 | 0.00 | 0.00 | 0.00 | 59 | 1011.5 |
| 20260906010017 | 25 | 338 | 4.8 | 12.9 | 0.00 | 0.00 | 0.00 | 60 | 1011.5 |
| 20260906005516 | 25 | 338 | 6.4 | 16.1 | 0.00 | 0.00 | 0.00 | 60 | 1011.4 |
| 20260906005018 | 25 | 338 | 4.8 | 12.9 | 0.00 | 0.00 | 0.00 | 59 | 1011.4 |
| 20260906004516 | 25 | 0 | 3.2 | 12.9 | 0.00 | 0.00 | 0.00 | 58 | 1011.3 |
| 20260906004016 | 25 | 0 | 3.2 | 6.4 | 0.00 | 0.00 | 0.00 | 58 | 1011.3 |
| 20260906003517 | 25 | 338 | 3.2 | 8.0 | 0.00 | 0.00 | 0.00 | 58 | 1011.2 |
| 20260906003017 | 25 | 45 | 3.2 | 9.7 | 0.00 | 0.00 | 0.00 | 58 | 1011.1 |
| 20260906002518 | 25 | 0 | 1.6 | 6.4 | 0.00 | 0.00 | 0.00 | 58 | 1011.1 |
| 20260906002018 | 25 | 45 | 3.2 | 12.9 | 0.00 | 0.00 | 0.00 | 57 | 1011.0 |
| 20260906001537 | 25 | 338 | 3.2 | 11.3 | 0.00 | 0.00 | 0.00 | 57 | 1010.8 |
| 20260906001017 | 25 | 0 | 4.8 | 12.9 | 0.00 | 0.00 | 0.00 | 58 | 1010.7 |
| 20260906000517 | 25 | 338 | 3.2 | 8.0 | 0.00 | 0.00 | 0.00 | 57 | 1010.7 |
| 20260906000017 | 25 | 23 | 3.2 | 8.0 | 0.00 | 0.00 | 0.00 | 57 | 1010.7 |
| 20260905235537 | 25 | 315 | 4.8 | 14.5 | 0.00 | 0.00 | 0.00 | 58 | 1010.6 |
| 20260905235016 | 25 | 315 | 4.8 | 12.9 | 0.00 | 0.00 | 0.00 | 58 | 1010.6 |
| 20260905234518 | 25 | 338 | 3.2 | 8.0 | 0.00 | 0.00 | 0.00 | 57 | 1010.5 |
| 20260905234016 | 25 | 338 | 3.2 | 11.3 | 0.00 | 0.00 | 0.00 | 56 | 1010.5 |
| 20260905233517 | 25 | 338 | 4.8 | 14.5 | 0.00 | 0.00 | 0.00 | 55 | 1010.5 |
| 20260905233038 | 25 | 338 | 4.8 | 11.3 | 0.00 | 0.00 | 0.00 | 55 | 1010.5 |
| 20260905232537 | 26 | 0 | 4.8 | 12.9 | 0.00 | 0.00 | 0.00 | 54 | 1010.5 |
| 20260905232016 | 26 | 0 | 4.8 | 12.9 | 0.00 | 0.00 | 0.00 | 53 | 1010.5 |
| 20260905231537 | 26 | 338 | 3.2 | 8.0 | 0.00 | 0.00 | 0.00 | 53 | 1010.5 |
| 20260905231017 | 26 | 0 | 4.8 | 14.5 | 0.00 | 0.00 | 0.00 | 52 | 1010.6 |
| 20260905230517 | 26 | 338 | 3.2 | 9.7 | 0.00 | 0.00 | 0.00 | 51 | 1010.6 |
| 20260905230017 | 26 | 45 | 4.8 | 12.9 | 0.00 | 0.00 | 0.00 | 51 | 1010.5 |
| 20260905225517 | 26 | 315 | 4.8 | 14.5 | 0.00 | 0.00 | 0.00 | 51 | 1010.4 |
| 20260905225016 | 26 | 0 | 4.8 | 16.1 | 0.00 | 0.00 | 0.00 | 50 | 1010.4 |
| 20260905224518 | 26 | 338 | 4.8 | 16.1 | 0.00 | 0.00 | 0.00 | 49 | 1010.3 |
| 20260905224017 | 26 | 338 | 6.4 | 16.1 | 0.00 | 0.00 | 0.00 | 50 | 1010.3 |
| 20260905223516 | 26 | 338 | 4.8 | 14.5 | 0.00 | 0.00 | 0.00 | 50 | 1010.3 |
| 20260905223037 | 27 | 0 | 4.8 | 12.9 | 0.00 | 0.00 | 0.00 | 49 | 1010.4 |
| 20260905222517 | 27 | 23 | 4.8 | 11.3 | 0.00 | 0.00 | 0.00 | 50 | 1010.4 |
| 20260905222016 | 27 | 315 | 3.2 | 9.7 | 0.00 | 0.00 | 0.00 | 50 | 1010.3 |
| 20260905221517 | 27 | 0 | 4.8 | 16.1 | 0.00 | 0.00 | 0.00 | 49 | 1010.2 |
| 20260905221017 | 27 | 0 | 3.2 | 11.3 | 0.00 | 0.00 | 0.00 | 49 | 1010.0 |
| 20260905220516 | 27 | 45 | 3.2 | 9.7 | 0.00 | 0.00 | 0.00 | 49 | 1010.0 |
| 20260905220016 | 27 | 338 | 3.2 | 12.9 | 0.00 | 0.00 | 0.00 | 49 | 1010.0 |
| 20260905215559 | 27 | 23 | 3.2 | 14.5 | 0.00 | 0.00 | 0.00 | 48 | 1010.0 |
| 20260905215016 | 27 | 23 | 4.8 | 9.7 | 0.00 | 0.00 | 0.00 | 48 | 1010.0 |
| 20260905214518 | 27 | 0 | 3.2 | 8.0 | 0.00 | 0.00 | 0.00 | 49 | 1010.0 |
| 20260905214016 | 27 | 0 | 6.4 | 17.7 | 0.00 | 0.00 | 0.00 | 48 | 1010.0 |
| 20260905213517 | 27 | 23 | 4.8 | 14.5 | 0.00 | 0.00 | 0.00 | 48 | 1010.0 |
| 20260905213017 | 27 | 338 | 3.2 | 8.0 | 0.00 | 0.00 | 0.00 | 47 | 1010.0 |
| 20260905212517 | 27 | 0 | 6.4 | 16.1 | 0.00 | 0.00 | 0.00 | 47 | 1010.0 |
| 20260905212017 | 27 | 338 | 3.2 | 9.7 | 0.00 | 0.00 | 0.00 | 47 | 1010.0 |
| 20260905211516 | 27 | 0 | 3.2 | 12.9 | 0.00 | 0.00 | 0.00 | 47 | 1009.9 |
| 20260905211016 | 27 | 23 | 3.2 | 14.5 | 0.00 | 0.00 | 0.00 | 47 | 1010.0 |
| 20260905210516 | 27 | 338 | 4.8 | 12.9 | 0.00 | 0.00 | 0.00 | 47 | 1010.0 |
| 20260905210017 | 27 | 338 | 6.4 | 12.9 | 0.00 | 0.00 | 0.00 | 47 | 1010.0 |
| 20260905205518 | 27 | 45 | 4.8 | 17.7 | 0.00 | 0.00 | 0.00 | 47 | 1010.0 |
| 20260905205016 | 27 | 338 | 4.8 | 9.7 | 0.00 | 0.00 | 0.00 | 48 | 1009.9 |
| 20260905204516 | 28 | 0 | 4.8 | 14.5 | 0.00 | 0.00 | 0.00 | 48 | 1009.9 |
| 20260905204036 | 27 | 0 | 3.2 | 8.0 | 0.00 | 0.00 | 0.00 | 47 | 1009.9 |
| 20260905203516 | 27 | 0 | 4.8 | 9.7 | 0.00 | 0.00 | 0.00 | 48 | 1009.9 |
| 20260905203017 | 27 | 293 | 3.2 | 9.7 | 0.00 | 0.00 | 0.00 | 48 | 1009.8 |
| 20260905202536 | 27 | 338 | 1.6 | 8.0 | 0.00 | 0.00 | 0.00 | 48 | 1009.8 |
| 20260905202016 | 27 | 23 | 3.2 | 9.7 | 0.00 | 0.00 | 0.00 | 49 | 1009.8 |
| 20260905201516 | 27 | 338 | 3.2 | 8.0 | 0.00 | 0.00 | 0.00 | 49 | 1009.9 |
| 20260905201016 | 27 | 23 | 3.2 | 8.0 | 0.00 | 0.00 | 0.00 | 48 | 1009.8 |
| 20260905200536 | 27 | 293 | 3.2 | 12.9 | 0.00 | 0.00 | 0.00 | 48 | 1009.9 |
| 20260905200016 | 27 | 23 | 4.8 | 16.1 | 0.00 | 0.00 | 0.00 | 48 | 1009.8 |
| 20260905195537 | 27 | 338 | 4.8 | 9.7 | 0.00 | 0.00 | 0.00 | 47 | 1009.8 |
| 20260905195016 | 27 | 45 | 4.8 | 12.9 | 0.00 | 0.00 | 0.00 | 47 | 1009.9 |
| 20260905194516 | 27 | 0 | 4.8 | 11.3 | 0.00 | 0.00 | 0.00 | 48 | 1009.9 |
| 20260905194038 | 27 | 338 | 6.4 | 14.5 | 0.00 | 0.00 | 0.00 | 47 | 1010.0 |
| 20260905193516 | 28 | 315 | 9.7 | 19.3 | 0.00 | 0.00 | 0.00 | 45 | 1010.0 |
| 20260905193018 | 28 | 315 | 8.0 | 17.7 | 0.00 | 0.00 | 0.00 | 45 | 1009.9 |
| 20260905192538 | 28 | 315 | 8.0 | 19.3 | 0.00 | 0.00 | 0.00 | 45 | 1009.9 |
| 20260905192016 | 28 | 45 | 4.8 | 11.3 | 0.00 | 0.00 | 0.00 | 45 | 1010.0 |
| 20260905191516 | 28 | 338 | 4.8 | 16.1 | 0.00 | 0.00 | 0.00 | 45 | 1010.0 |
| 20260905191036 | 28 | 45 | 4.8 | 14.5 | 0.00 | 0.00 | 0.00 | 45 | 1010.0 |
| 20260905190516 | 28 | 315 | 3.2 | 6.4 | 0.00 | 0.00 | 0.00 | 46 | 1010.0 |
| 20260905190016 | 27 | 23 | 6.4 | 12.9 | 0.00 | 0.00 | 0.00 | 47 | 1010.1 |
| 20260905185517 | 27 | 0 | 4.8 | 11.3 | 0.00 | 0.00 | 0.00 | 48 | 1010.1 |
| 20260905185036 | 27 | 338 | 4.8 | 14.5 | 0.00 | 0.00 | 0.00 | 47 | 1010.2 |
| 20260905184516 | 27 | 0 | 4.8 | 14.5 | 0.00 | 0.00 | 0.00 | 47 | 1010.2 |
| 20260905184037 | 27 | 315 | 4.8 | 14.5 | 0.00 | 0.00 | 0.00 | 47 | 1010.3 |
| 20260905183536 | 28 | 270 | 4.8 | 14.5 | 0.00 | 0.00 | 0.00 | 47 | 1010.2 |
| 20260905183017 | 28 | 45 | 3.2 | 12.9 | 0.00 | 0.00 | 0.00 | 48 | 1010.2 |
| 20260905182516 | 27 | 293 | 4.8 | 14.5 | 0.00 | 0.00 | 0.00 | 49 | 1010.3 |
| 20260905182018 | 27 | 0 | 4.8 | 14.5 | 0.00 | 0.00 | 0.00 | 49 | 1010.4 |
| 20260905181537 | 27 | 0 | 6.4 | 16.1 | 0.00 | 0.00 | 0.00 | 49 | 1010.4 |
| 20260905181016 | 27 | 338 | 6.4 | 12.9 | 0.00 | 0.00 | 0.00 | 49 | 1010.4 |
| 20260905180516 | 27 | 315 | 6.4 | 19.3 | 0.00 | 0.00 | 0.00 | 48 | 1010.4 |
| 20260905180037 | 27 | 315 | 3.2 | 9.7 | 0.00 | 0.00 | 0.00 | 48 | 1010.4 |
| 20260905175516 | 27 | 315 | 4.8 | 16.1 | 0.00 | 0.00 | 0.00 | 48 | 1010.4 |
| 20260905175016 | 28 | 293 | 8.0 | 16.1 | 0.00 | 0.00 | 0.00 | 47 | 1010.4 |
| 20260905174516 | 27 | 270 | 6.4 | 17.7 | 0.00 | 0.00 | 0.00 | 48 | 1010.4 |
| 20260905174016 | 27 | 338 | 4.8 | 12.9 | 0.00 | 0.00 | 0.00 | 49 | 1010.5 |
| 20260905173517 | 27 | 315 | 9.7 | 17.7 | 0.00 | 0.00 | 0.00 | 48 | 1010.5 |
| 20260905173017 | 27 | 45 | 6.4 | 16.1 | 0.00 | 0.00 | 0.00 | 49 | 1010.5 |
| 20260905172516 | 27 | 0 | 6.4 | 17.7 | 0.00 | 0.00 | 0.00 | 47 | 1010.6 |
| 20260905172036 | 27 | 45 | 6.4 | 16.1 | 0.00 | 0.00 | 0.00 | 47 | 1010.6 |
| 20260905171518 | 27 | 0 | 4.8 | 12.9 | 0.00 | 0.00 | 0.00 | 47 | 1010.7 |
| 20260905171017 | 27 | 0 | 4.8 | 14.5 | 0.00 | 0.00 | 0.00 | 48 | 1010.7 |
| 20260905170516 | 27 | 45 | 6.4 | 17.7 | 0.00 | 0.00 | 0.00 | 48 | 1010.7 |
| 20260905170016 | 27 | 45 | 4.8 | 14.5 | 0.00 | 0.00 | 0.00 | 50 | 1010.7 |
| 20260905165516 | 27 | 0 | 6.4 | 16.1 | 0.00 | 0.00 | 0.00 | 50 | 1010.6 |
| 20260905165037 | 27 | 0 | 6.4 | 16.1 | 0.00 | 0.00 | 0.00 | 50 | 1010.7 |
| 20260905164516 | 27 | 315 | 6.4 | 16.1 | 0.00 | 0.00 | 0.00 | 51 | 1010.8 |
| 20260905164016 | 27 | 0 | 4.8 | 11.3 | 0.00 | 0.00 | 0.00 | 52 | 1010.9 |
| 20260905163516 | 27 | 45 | 8.0 | 20.9 | 0.00 | 0.00 | 0.00 | 52 | 1010.8 |
| 20260905163016 | 27 | 0 | 6.4 | 16.1 | 0.00 | 0.00 | 0.00 | 51 | 1010.9 |
| 20260905162516 | 27 | 0 | 6.4 | 12.9 | 0.00 | 0.00 | 0.00 | 51 | 1010.8 |
| 20260905162016 | 27 | 0 | 6.4 | 14.5 | 0.00 | 0.00 | 0.00 | 52 | 1010.8 |
| 20260905161516 | 27 | 0 | 6.4 | 14.5 | 0.00 | 0.00 | 0.00 | 53 | 1010.7 |
| 20260905161017 | 27 | 315 | 6.4 | 14.5 | 0.00 | 0.00 | 0.00 | 53 | 1010.8 |
| 20260905160516 | 27 | 293 | 4.8 | 19.3 | 0.00 | 0.00 | 0.00 | 50 | 1010.7 |
| 20260905160016 | 27 | 338 | 4.8 | 11.3 | 0.00 | 0.00 | 0.00 | 51 | 1010.7 |
| 20260905155518 | 27 | 293 | 4.8 | 14.5 | 0.00 | 0.00 | 0.00 | 51 | 1010.7 |
| 20260905155017 | 27 | 315 | 4.8 | 14.5 | 0.00 | 0.00 | 0.00 | 51 | 1010.6 |
| 20260905154516 | 27 | 0 | 6.4 | 14.5 | 0.00 | 0.00 | 0.00 | 51 | 1010.6 |
| 20260905154018 | 27 | 338 | 6.4 | 12.9 | 0.00 | 0.00 | 0.00 | 51 | 1010.6 |
| 20260905153517 | 26 | 45 | 6.4 | 16.1 | 0.00 | 0.00 | 0.00 | 53 | 1010.6 |
| 20260905153017 | 26 | 338 | 4.8 | 12.9 | 0.00 | 0.00 | 0.00 | 53 | 1010.7 |
| 20260905152516 | 26 | 0 | 4.8 | 14.5 | 0.00 | 0.00 | 0.00 | 52 | 1010.7 |
| 20260905152017 | 27 | 315 | 4.8 | 14.5 | 0.00 | 0.00 | 0.00 | 53 | 1010.7 |
| 20260905151516 | 26 | 315 | 4.8 | 14.5 | 0.00 | 0.00 | 0.00 | 53 | 1010.8 |
| 20260905151016 | 26 | 45 | 4.8 | 8.0 | 0.00 | 0.00 | 0.00 | 54 | 1010.7 |
| 20260905150516 | 26 | 0 | 6.4 | 17.7 | 0.00 | 0.00 | 0.00 | 55 | 1010.7 |
| 20260905150036 | 26 | 338 | 6.4 | 17.7 | 0.00 | 0.00 | 0.00 | 55 | 1010.7 |
| 20260905145516 | 26 | 23 | 6.4 | 16.1 | 0.00 | 0.00 | 0.00 | 54 | 1010.8 |
| 20260905145016 | 26 | 0 | 6.4 | 19.3 | 0.00 | 0.00 | 0.00 | 54 | 1010.7 |
| 20260905144516 | 26 | 338 | 6.4 | 16.1 | 0.00 | 0.00 | 0.00 | 55 | 1010.7 |
| 20260905144016 | 26 | 338 | 4.8 | 17.7 | 0.00 | 0.00 | 0.00 | 57 | 1010.6 |
| 20260905143516 | 26 | 315 | 4.8 | 11.3 | 0.00 | 0.00 | 0.00 | 58 | 1010.6 |
| 20260905143017 | 25 | 45 | 4.8 | 12.9 | 0.00 | 0.00 | 0.00 | 58 | 1010.6 |
| 20260905142516 | 25 | 270 | 3.2 | 9.7 | 0.00 | 0.00 | 0.00 | 59 | 1010.6 |
| 20260905142016 | 25 | 338 | 3.2 | 8.0 | 0.00 | 0.00 | 0.00 | 61 | 1010.5 |
| 20260905141517 | 25 | 23 | 4.8 | 11.3 | 0.00 | 0.00 | 0.00 | 62 | 1010.7 |
| 20260905141037 | 25 | 338 | 4.8 | 14.5 | 0.00 | 0.00 | 0.00 | 62 | 1010.6 |
| 20260905140517 | 25 | 338 | 4.8 | 9.7 | 0.00 | 0.00 | 0.00 | 63 | 1010.5 |
| 20260905140016 | 24 | 338 | 4.8 | 11.3 | 0.00 | 0.00 | 0.00 | 63 | 1010.5 |
| 20260905135516 | 24 | 315 | 6.4 | 14.5 | 0.00 | 0.00 | 0.00 | 63 | 1010.6 |